User: anonymous   Login
Location: *
(12.5665°N, 8.3471°E)
Time: 04:11:22
(UTC+00:00)
Language:

CZ-4B R/B - Orbit

View from above orbital plane
View from above orbital plane
View from above satellite
View from above satellite

Ground track
Ground track

The orbit data is extracted from the following two-line orbital elements,

1 33410U 08053C   19316.40855477 -.00000092  00000-0 -14694-5 0  9999
2 33410  97.8395 295.9867 0119101 127.4323 233.7808 14.99013103602331
Epoch (UTC): 12 November 2019 09:48:19
Eccentricity: 0.0119101
inclination: 97.8395°
perigee height: 487 km
apogee height: 653 km
right ascension of ascending node: 295.9867°
argument of perigee: 127.4323°
revolutions per day: 14.99013103
mean anomaly at epoch: 233.7808°
orbit number at epoch: 60233

The dashed part of the orbit path shows where the satellite is in the earth's shadow,  

DLR